Location: San Martino di Castrozza
(46.2667°N, 11.8000°E)
Time: 16:42:09
(UTC+00:00)

Cosmos 1953 - Pass Details

Date: 31 July 2021
Orbit: 538 x 556 km, 82.5° (Epoch: 18 September)

Event Time Altitude Azimuth Distance (km) Brightness Sun altitude
Rises 02:31:21 0° 135° (SE) 2,726 5.9 -12.3°
Reaches altitude 10° 02:35:06 10° 98° (E) 1,836 5.5 -11.8°
Maximum altitude 02:36:11 11° 83° (E) 1,777 5.8 -11.7°
Drops below altitude 10° 02:37:15 10° 67° (ENE) 1,837 6.2 -11.6°
Sets 02:41:00 0° 31° (NNE) 2,734 7.5 -11.1°
